2018,10,26,00,00,00,582.3,,,,,,,,,,,,,,
2018,10,26,00,01,00,1024.1,,,,,,,,,,,,,,
2018,10,26,00,02,00,320.4,,,,,,,,,,,,,,
2018,10,26,00,03,00,179.7,,,,,,,,,,,,,,
2018,10,26,00,04,00,176.0,,,,,,,,,,,,,,
2018,10,26,00,05,00,308.0,,,,,,,,,,,,,,
2018,10,26,00,06,00,218.5,,,,,,,,,,,,,,
2018,10,26,00,07,00,400.3,,,,,,,,,,,,,,
2018,10,26,00,08,00,202.9,,,,,,,,,,,,,,
2018,10,26,00,09,00,33.0,,,,,,,,,,,,,,
2018,10,26,00,10,00,229.9,,,,,,,,,,,,,,
2018,10,26,00,11,00,405.7,,,,,,,,,,,,,,
2018,10,26,00,12,00,231.1,,,,,,,,,,,,,,
2018,10,26,00,13,00,251.8,,,,,,,,,,,,,,
2018,10,26,00,14,00,138.1,,,,,,,,,,,,,,
2018,10,26,00,15,00,178.1,,,,,,,,,,,,,,
2018,10,26,00,16,00,416.0,,,,,,,,,,,,,,
2018,10,26,00,17,00,111.6,,,,,,,,,,,,,,
2018,10,26,00,18,00,218.5,,,,,,,,,,,,,,
2018,10,26,00,19,00,130.5,,,,,,,,,,,,,,
2018,10,26,00,20,00,74.7,,,,,,,,,,,,,,
2018,10,26,00,21,00,51.0,,,,,,,,,,,,,,
2018,10,26,00,22,00,212.6,,,,,,,,,,,,,,
2018,10,26,00,23,00,135.1,,,,,,,,,,,,,,
2018,10,26,00,24,00,-30.6,,,,,,,,,,,,,,
2018,10,26,00,25,00,217.6,,,,,,,,,,,,,,
2018,10,26,00,26,00,273.5,,,,,,,,,,,,,,
2018,10,26,00,27,00,212.0,,,,,,,,,,,,,,
2018,10,26,00,28,00,316.3,,,,,,,,,,,,,,
2018,10,26,00,29,00,171.5,,,,,,,,,,,,,,
2018,10,26,00,30,00,242.0,,,,,,,,,,,,,,
2018,10,26,00,31,00,5.4,,,,,,,,,,,,,,
2018,10,26,00,32,00,129.4,,,,,,,,,,,,,,
2018,10,26,00,33,00,343.7,,,,,,,,,,,,,,
2018,10,26,00,34,00,473.4,,,,,,,,,,,,,,
2018,10,26,00,35,00,427.5,,,,,,,,,,,,,,
2018,10,26,00,36,00,461.7,,,,,,,,,,,,,,
2018,10,26,00,37,00,78.5,,,,,,,,,,,,,,
2018,10,26,00,38,00,159.4,,,,,,,,,,,,,,
2018,10,26,00,39,00,150.4,,,,,,,,,,,,,,
2018,10,26,00,40,00,216.7,,,,,,,,,,,,,,
2018,10,26,00,41,00,90.9,,,,,,,,,,,,,,
2018,10,26,00,42,00,113.2,,,,,,,,,,,,,,
2018,10,26,00,43,00,0.7,,,,,,,,,,,,,,
2018,10,26,00,44,00,172.7,,,,,,,,,,,,,,
2018,10,26,00,45,00,242.7,,,,,,,,,,,,,,
2018,10,26,00,46,00,182.6,,,,,,,,,,,,,,
2018,10,26,00,47,00,124.8,,,,,,,,,,,,,,
2018,10,26,00,48,00,-69.6,,,,,,,,,,,,,,
2018,10,26,00,49,00,88.0,,,,,,,,,,,,,,
2018,10,26,00,50,00,248.8,,,,,,,,,,,,,,
2018,10,26,00,51,00,119.8,,,,,,,,,,,,,,
2018,10,26,00,52,00,202.1,,,,,,,,,,,,,,
2018,10,26,00,53,00,43.6,,,,,,,,,,,,,,
2018,10,26,00,54,00,-115.6,,,,,,,,,,,,,,
2018,10,26,00,55,00,182.2,,,,,,,,,,,,,,
2018,10,26,00,56,00,355.5,,,,,,,,,,,,,,
2018,10,26,00,57,00,-218.6,,,,,,,,,,,,,,
2018,10,26,00,58,00,83.1,,,,,,,,,,,,,,
2018,10,26,00,59,00,32.0,,,,,,,,,,,,,,
2018,10,26,01,00,00,678.3,,,,,,,,,,,,,,
2018,10,26,01,01,00,190.8,,,,,,,,,,,,,,
2018,10,26,01,02,00,-146.8,,,,,,,,,,,,,,
2018,10,26,01,03,00,94.2,,,,,,,,,,,,,,
2018,10,26,01,04,00,283.0,,,,,,,,,,,,,,
2018,10,26,01,05,00,140.3,,,,,,,,,,,,,,
2018,10,26,01,06,00,602.7,,,,,,,,,,,,,,
2018,10,26,01,07,00,139.3,,,,,,,,,,,,,,
2018,10,26,01,08,00,80.3,,,,,,,,,,,,,,
2018,10,26,01,09,00,-64.5,,,,,,,,,,,,,,
2018,10,26,01,10,00,-153.1,,,,,,,,,,,,,,
2018,10,26,01,11,00,32.4,,,,,,,,,,,,,,
2018,10,26,01,12,00,46.5,,,,,,,,,,,,,,
2018,10,26,01,13,00,98.8,,,,,,,,,,,,,,
2018,10,26,01,14,00,266.6,,,,,,,,,,,,,,
2018,10,26,01,15,00,-5.5,,,,,,,,,,,,,,
2018,10,26,01,16,00,30.3,,,,,,,,,,,,,,
2018,10,26,01,17,00,-0.8,,,,,,,,,,,,,,
2018,10,26,01,18,00,72.7,,,,,,,,,,,,,,
2018,10,26,01,19,00,160.9,,,,,,,,,,,,,,
2018,10,26,01,20,00,161.5,,,,,,,,,,,,,,
2018,10,26,01,21,00,44.5,,,,,,,,,,,,,,
2018,10,26,01,22,00,-43.4,,,,,,,,,,,,,,
2018,10,26,01,23,00,-70.1,,,,,,,,,,,,,,
2018,10,26,01,24,00,79.4,,,,,,,,,,,,,,
2018,10,26,01,25,00,185.4,,,,,,,,,,,,,,
2018,10,26,01,26,00,1.6,,,,,,,,,,,,,,
2018,10,26,01,27,00,67.0,,,,,,,,,,,,,,
2018,10,26,01,28,00,65.1,,,,,,,,,,,,,,
2018,10,26,01,29,00,79.6,,,,,,,,,,,,,,
2018,10,26,01,30,00,118.5,,,,,,,,,,,,,,
2018,10,26,01,31,00,131.8,,,,,,,,,,,,,,
2018,10,26,01,32,00,-31.9,,,,,,,,,,,,,,
2018,10,26,01,33,00,-388.6,,,,,,,,,,,,,,
2018,10,26,01,34,00,-194.9,,,,,,,,,,,,,,
2018,10,26,01,35,00,-129.7,,,,,,,,,,,,,,
2018,10,26,01,36,00,-16.6,,,,,,,,,,,,,,
2018,10,26,01,37,00,22.3,,,,,,,,,,,,,,
2018,10,26,01,38,00,495.8,,,,,,,,,,,,,,
2018,10,26,01,39,00,100.5,,,,,,,,,,,,,,
2018,10,26,01,40,00,-31.5,,,,,,,,,,,,,,
2018,10,26,01,41,00,-19.2,,,,,,,,,,,,,,
2018,10,26,01,42,00,310.2,,,,,,,,,,,,,,
2018,10,26,01,43,00,179.2,,,,,,,,,,,,,,
2018,10,26,01,44,00,-63.6,,,,,,,,,,,,,,
2018,10,26,01,45,00,19.3,,,,,,,,,,,,,,
2018,10,26,01,46,00,-6.4,,,,,,,,,,,,,,
2018,10,26,01,47,00,52.6,,,,,,,,,,,,,,
2018,10,26,01,48,00,97.9,,,,,,,,,,,,,,
2018,10,26,01,49,00,71.5,,,,,,,,,,,,,,
2018,10,26,01,50,00,109.1,,,,,,,,,,,,,,
2018,10,26,01,51,00,-15.3,,,,,,,,,,,,,,
2018,10,26,01,52,00,37.7,,,,,,,,,,,,,,
2018,10,26,01,53,00,136.6,,,,,,,,,,,,,,
2018,10,26,01,54,00,-26.3,,,,,,,,,,,,,,
2018,10,26,01,55,00,97.2,,,,,,,,,,,,,,
2018,10,26,01,56,00,154.6,,,,,,,,,,,,,,
2018,10,26,01,57,00,186.7,,,,,,,,,,,,,,
2018,10,26,01,58,00,96.7,,,,,,,,,,,,,,
2018,10,26,01,59,00,272.6,,,,,,,,,,,,,,
2018,10,26,02,00,00,127.0,,,,,,,,,,,,,,
2018,10,26,02,01,00,218.5,,,,,,,,,,,,,,
2018,10,26,02,02,00,128.4,,,,,,,,,,,,,,
2018,10,26,02,03,00,-60.5,,,,,,,,,,,,,,
2018,10,26,02,04,00,-63.1,,,,,,,,,,,,,,
2018,10,26,02,05,00,99.3,,,,,,,,,,,,,,
2018,10,26,02,06,00,132.9,,,,,,,,,,,,,,
2018,10,26,02,07,00,339.4,,,,,,,,,,,,,,
2018,10,26,02,08,00,292.0,,,,,,,,,,,,,,
2018,10,26,02,09,00,198.8,,,,,,,,,,,,,,
2018,10,26,02,10,00,141.2,,,,,,,,,,,,,,
2018,10,26,02,11,00,90.0,,,,,,,,,,,,,,
2018,10,26,02,12,00,81.3,,,,,,,,,,,,,,
2018,10,26,02,13,00,93.0,,,,,,,,,,,,,,
2018,10,26,02,14,00,99.9,,,,,,,,,,,,,,
2018,10,26,02,15,00,105.2,,,,,,,,,,,,,,
2018,10,26,02,16,00,117.7,,,,,,,,,,,,,,
2018,10,26,02,17,00,119.4,,,,,,,,,,,,,,
2018,10,26,02,18,00,130.8,,,,,,,,,,,,,,
2018,10,26,02,19,00,147.3,,,,,,,,,,,,,,
2018,10,26,02,20,00,165.0,,,,,,,,,,,,,,
2018,10,26,02,21,00,195.4,,,,,,,,,,,,,,
2018,10,26,02,22,00,192.6,,,,,,,,,,,,,,
2018,10,26,02,23,00,181.9,,,,,,,,,,,,,,
2018,10,26,02,24,00,163.3,,,,,,,,,,,,,,
2018,10,26,02,25,00,182.8,,,,,,,,,,,,,,
2018,10,26,02,26,00,187.5,,,,,,,,,,,,,,
2018,10,26,02,27,00,208.4,,,,,,,,,,,,,,
2018,10,26,02,28,00,209.7,,,,,,,,,,,,,,
2018,10,26,02,29,00,207.4,,,,,,,,,,,,,,
2018,10,26,02,30,00,189.4,,,,,,,,,,,,,,
2018,10,26,02,31,00,129.1,,,,,,,,,,,,,,
2018,10,26,02,32,00,118.2,,,,,,,,,,,,,,
2018,10,26,02,33,00,155.2,,,,,,,,,,,,,,
2018,10,26,02,34,00,148.4,,,,,,,,,,,,,,
2018,10,26,02,35,00,177.7,,,,,,,,,,,,,,
2018,10,26,02,36,00,141.6,,,,,,,,,,,,,,
2018,10,26,02,37,00,116.6,,,,,,,,,,,,,,
2018,10,26,02,38,00,111.8,,,,,,,,,,,,,,
2018,10,26,02,39,00,121.7,,,,,,,,,,,,,,
2018,10,26,02,40,00,120.9,,,,,,,,,,,,,,
2018,10,26,02,41,00,138.8,,,,,,,,,,,,,,
2018,10,26,02,42,00,135.5,,,,,,,,,,,,,,
2018,10,26,02,43,00,89.6,,,,,,,,,,,,,,
2018,10,26,02,44,00,105.6,,,,,,,,,,,,,,
2018,10,26,02,45,00,136.0,,,,,,,,,,,,,,
2018,10,26,02,46,00,160.3,,,,,,,,,,,,,,
2018,10,26,02,47,00,170.8,,,,,,,,,,,,,,
2018,10,26,02,48,00,173.8,,,,,,,,,,,,,,
2018,10,26,02,49,00,188.9,,,,,,,,,,,,,,
2018,10,26,02,50,00,130.2,,,,,,,,,,,,,,
2018,10,26,02,51,00,-119.4,,,,,,,,,,,,,,
2018,10,26,02,52,00,-158.0,,,,,,,,,,,,,,
2018,10,26,02,53,00,-21.6,,,,,,,,,,,,,,
2018,10,26,02,54,00,-16.2,,,,,,,,,,,,,,
2018,10,26,02,55,00,-14.3,,,,,,,,,,,,,,
2018,10,26,02,56,00,87.9,,,,,,,,,,,,,,
2018,10,26,02,57,00,104.3,,,,,,,,,,,,,,
2018,10,26,02,58,00,84.8,,,,,,,,,,,,,,
2018,10,26,02,59,00,91.4,,,,,,,,,,,,,,
2018,10,26,03,00,00,116.4,,,,,,,,,,,,,,
2018,10,26,03,01,00,124.7,,,,,,,,,,,,,,
2018,10,26,03,02,00,89.3,,,,,,,,,,,,,,
2018,10,26,03,03,00,23.3,,,,,,,,,,,,,,
2018,10,26,03,04,00,27.7,,,,,,,,,,,,,,
2018,10,26,03,05,00,73.3,,,,,,,,,,,,,,
2018,10,26,03,06,00,67.6,,,,,,,,,,,,,,
2018,10,26,03,07,00,71.8,,,,,,,,,,,,,,
2018,10,26,03,08,00,80.5,,,,,,,,,,,,,,
2018,10,26,03,09,00,102.3,,,,,,,,,,,,,,
2018,10,26,03,10,00,116.1,,,,,,,,,,,,,,
2018,10,26,03,11,00,116.1,,,,,,,,,,,,,,
2018,10,26,03,12,00,135.9,,,,,,,,,,,,,,
2018,10,26,03,13,00,146.1,,,,,,,,,,,,,,
2018,10,26,03,14,00,159.0,,,,,,,,,,,,,,
2018,10,26,03,15,00,151.2,,,,,,,,,,,,,,
2018,10,26,03,16,00,143.6,,,,,,,,,,,,,,
2018,10,26,03,17,00,145.9,,,,,,,,,,,,,,
2018,10,26,03,18,00,150.3,,,,,,,,,,,,,,
2018,10,26,03,19,00,154.0,,,,,,,,,,,,,,
2018,10,26,03,20,00,141.6,,,,,,,,,,,,,,
2018,10,26,03,21,00,173.4,,,,,,,,,,,,,,
2018,10,26,03,22,00,168.3,,,,,,,,,,,,,,
2018,10,26,03,23,00,188.7,,,,,,,,,,,,,,
2018,10,26,03,24,00,222.4,,,,,,,,,,,,,,
2018,10,26,03,25,00,244.1,,,,,,,,,,,,,,
2018,10,26,03,26,00,253.4,,,,,,,,,,,,,,
2018,10,26,03,27,00,257.2,,,,,,,,,,,,,,
2018,10,26,03,28,00,246.4,,,,,,,,,,,,,,
2018,10,26,03,29,00,226.1,,,,,,,,,,,,,,
2018,10,26,03,30,00,250.0,,,,,,,,,,,,,,
2018,10,26,03,31,00,289.6,,,,,,,,,,,,,,
2018,10,26,03,32,00,267.2,,,,,,,,,,,,,,
2018,10,26,03,33,00,234.7,,,,,,,,,,,,,,
2018,10,26,03,34,00,210.4,,,,,,,,,,,,,,
2018,10,26,03,35,00,222.0,,,,,,,,,,,,,,
2018,10,26,03,36,00,240.0,,,,,,,,,,,,,,
2018,10,26,03,37,00,225.7,,,,,,,,,,,,,,
2018,10,26,03,38,00,210.9,,,,,,,,,,,,,,
2018,10,26,03,39,00,203.4,,,,,,,,,,,,,,
2018,10,26,03,40,00,190.7,,,,,,,,,,,,,,
2018,10,26,03,41,00,188.7,,,,,,,,,,,,,,
2018,10,26,03,42,00,191.6,,,,,,,,,,,,,,
2018,10,26,03,43,00,201.7,,,,,,,,,,,,,,
2018,10,26,03,44,00,204.2,,,,,,,,,,,,,,
2018,10,26,03,45,00,208.7,,,,,,,,,,,,,,
2018,10,26,03,46,00,211.0,,,,,,,,,,,,,,
2018,10,26,03,47,00,194.8,,,,,,,,,,,,,,
2018,10,26,03,48,00,208.3,,,,,,,,,,,,,,
2018,10,26,03,49,00,255.0,,,,,,,,,,,,,,
2018,10,26,03,50,00,274.1,,,,,,,,,,,,,,
2018,10,26,03,51,00,253.5,,,,,,,,,,,,,,
2018,10,26,03,52,00,238.9,,,,,,,,,,,,,,
2018,10,26,03,53,00,221.9,,,,,,,,,,,,,,
2018,10,26,03,54,00,237.6,,,,,,,,,,,,,,
2018,10,26,03,55,00,244.0,,,,,,,,,,,,,,
2018,10,26,03,56,00,236.5,,,,,,,,,,,,,,
2018,10,26,03,57,00,218.2,,,,,,,,,,,,,,
2018,10,26,03,58,00,179.7,,,,,,,,,,,,,,
2018,10,26,03,59,00,160.9,,,,,,,,,,,,,,
2018,10,26,04,00,00,153.6,,,,,,,,,,,,,,
2018,10,26,04,01,00,159.7,,,,,,,,,,,,,,
2018,10,26,04,02,00,158.7,,,,,,,,,,,,,,
2018,10,26,04,03,00,159.5,,,,,,,,,,,,,,
2018,10,26,04,04,00,152.1,,,,,,,,,,,,,,
2018,10,26,04,05,00,191.5,,,,,,,,,,,,,,
2018,10,26,04,06,00,242.8,,,,,,,,,,,,,,
2018,10,26,04,07,00,252.1,,,,,,,,,,,,,,
2018,10,26,04,08,00,283.9,,,,,,,,,,,,,,
2018,10,26,04,09,00,295.1,,,,,,,,,,,,,,
2018,10,26,04,10,00,271.9,,,,,,,,,,,,,,
2018,10,26,04,11,00,229.4,,,,,,,,,,,,,,
2018,10,26,04,12,00,201.1,,,,,,,,,,,,,,
2018,10,26,04,13,00,206.3,,,,,,,,,,,,,,
2018,10,26,04,14,00,231.2,,,,,,,,,,,,,,
2018,10,26,04,15,00,251.0,,,,,,,,,,,,,,
2018,10,26,04,16,00,283.2,,,,,,,,,,,,,,
2018,10,26,04,17,00,315.7,,,,,,,,,,,,,,
2018,10,26,04,18,00,326.6,,,,,,,,,,,,,,
2018,10,26,04,19,00,314.5,,,,,,,,,,,,,,
2018,10,26,04,20,00,294.3,,,,,,,,,,,,,,
2018,10,26,04,21,00,297.8,,,,,,,,,,,,,,
2018,10,26,04,22,00,315.6,,,,,,,,,,,,,,
2018,10,26,04,23,00,350.2,,,,,,,,,,,,,,
2018,10,26,04,24,00,371.3,,,,,,,,,,,,,,
2018,10,26,04,25,00,396.4,,,,,,,,,,,,,,
2018,10,26,04,26,00,334.5,,,,,,,,,,,,,,
2018,10,26,04,27,00,271.4,,,,,,,,,,,,,,
2018,10,26,04,28,00,238.0,,,,,,,,,,,,,,
2018,10,26,04,29,00,246.2,,,,,,,,,,,,,,
2018,10,26,04,30,00,267.1,,,,,,,,,,,,,,
2018,10,26,04,31,00,294.2,,,,,,,,,,,,,,
2018,10,26,04,32,00,267.2,,,,,,,,,,,,,,
2018,10,26,04,33,00,253.7,,,,,,,,,,,,,,
2018,10,26,04,34,00,279.4,,,,,,,,,,,,,,
2018,10,26,04,35,00,272.3,,,,,,,,,,,,,,
2018,10,26,04,36,00,228.6,,,,,,,,,,,,,,
2018,10,26,04,37,00,250.8,,,,,,,,,,,,,,
2018,10,26,04,38,00,188.5,,,,,,,,,,,,,,
2018,10,26,04,39,00,177.2,,,,,,,,,,,,,,
2018,10,26,04,40,00,183.7,,,,,,,,,,,,,,
2018,10,26,04,41,00,215.4,,,,,,,,,,,,,,
2018,10,26,04,42,00,232.7,,,,,,,,,,,,,,
2018,10,26,04,43,00,246.4,,,,,,,,,,,,,,
2018,10,26,04,44,00,248.7,,,,,,,,,,,,,,
2018,10,26,04,45,00,221.6,,,,,,,,,,,,,,
2018,10,26,04,46,00,209.7,,,,,,,,,,,,,,
2018,10,26,04,47,00,225.3,,,,,,,,,,,,,,
2018,10,26,04,48,00,251.7,,,,,,,,,,,,,,
2018,10,26,04,49,00,240.0,,,,,,,,,,,,,,
2018,10,26,04,50,00,238.5,,,,,,,,,,,,,,
2018,10,26,04,51,00,243.9,,,,,,,,,,,,,,
2018,10,26,04,52,00,243.2,,,,,,,,,,,,,,
2018,10,26,04,53,00,266.1,,,,,,,,,,,,,,
2018,10,26,04,54,00,272.8,,,,,,,,,,,,,,
2018,10,26,04,55,00,252.4,,,,,,,,,,,,,,
2018,10,26,04,56,00,247.5,,,,,,,,,,,,,,
2018,10,26,04,57,00,239.1,,,,,,,,,,,,,,
2018,10,26,04,58,00,185.7,,,,,,,,,,,,,,
2018,10,26,04,59,00,173.5,,,,,,,,,,,,,,
2018,10,26,05,00,00,199.5,,,,,,,,,,,,,,
2018,10,26,05,01,00,181.9,,,,,,,,,,,,,,
2018,10,26,05,02,00,147.7,,,,,,,,,,,,,,
2018,10,26,05,03,00,149.3,,,,,,,,,,,,,,
2018,10,26,05,04,00,133.3,,,,,,,,,,,,,,
2018,10,26,05,05,00,142.2,,,,,,,,,,,,,,
2018,10,26,05,06,00,164.8,,,,,,,,,,,,,,
2018,10,26,05,07,00,167.1,,,,,,,,,,,,,,
2018,10,26,05,08,00,187.1,,,,,,,,,,,,,,
2018,10,26,05,09,00,203.3,,,,,,,,,,,,,,
2018,10,26,05,10,00,228.8,,,,,,,,,,,,,,
2018,10,26,05,11,00,233.2,,,,,,,,,,,,,,
2018,10,26,05,12,00,203.2,,,,,,,,,,,,,,
2018,10,26,05,13,00,173.0,,,,,,,,,,,,,,
2018,10,26,05,14,00,135.8,,,,,,,,,,,,,,
2018,10,26,05,15,00,112.8,,,,,,,,,,,,,,
2018,10,26,05,16,00,110.3,,,,,,,,,,,,,,
2018,10,26,05,17,00,111.9,,,,,,,,,,,,,,
2018,10,26,05,18,00,101.0,,,,,,,,,,,,,,
2018,10,26,05,19,00,97.3,,,,,,,,,,,,,,
2018,10,26,05,20,00,76.1,,,,,,,,,,,,,,
2018,10,26,05,21,00,73.1,,,,,,,,,,,,,,
2018,10,26,05,22,00,78.9,,,,,,,,,,,,,,
2018,10,26,05,23,00,100.7,,,,,,,,,,,,,,
2018,10,26,05,24,00,116.5,,,,,,,,,,,,,,
2018,10,26,05,25,00,114.8,,,,,,,,,,,,,,
2018,10,26,05,26,00,129.1,,,,,,,,,,,,,,
2018,10,26,05,27,00,143.4,,,,,,,,,,,,,,
2018,10,26,05,28,00,136.2,,,,,,,,,,,,,,
2018,10,26,05,29,00,158.7,,,,,,,,,,,,,,
2018,10,26,05,30,00,153.4,,,,,,,,,,,,,,
2018,10,26,05,31,00,186.6,,,,,,,,,,,,,,
2018,10,26,05,32,00,187.0,,,,,,,,,,,,,,
2018,10,26,05,33,00,154.3,,,,,,,,,,,,,,
2018,10,26,05,34,00,152.3,,,,,,,,,,,,,,
2018,10,26,05,35,00,165.8,,,,,,,,,,,,,,
2018,10,26,05,36,00,189.4,,,,,,,,,,,,,,
2018,10,26,05,37,00,201.9,,,,,,,,,,,,,,
2018,10,26,05,38,00,184.6,,,,,,,,,,,,,,
2018,10,26,05,39,00,169.8,,,,,,,,,,,,,,
2018,10,26,05,40,00,178.0,,,,,,,,,,,,,,
2018,10,26,05,41,00,175.2,,,,,,,,,,,,,,
2018,10,26,05,42,00,172.9,,,,,,,,,,,,,,
2018,10,26,05,43,00,184.9,,,,,,,,,,,,,,
2018,10,26,05,44,00,159.6,,,,,,,,,,,,,,
2018,10,26,05,45,00,140.0,,,,,,,,,,,,,,
2018,10,26,05,46,00,119.9,,,,,,,,,,,,,,
2018,10,26,05,47,00,118.3,,,,,,,,,,,,,,
2018,10,26,05,48,00,105.0,,,,,,,,,,,,,,
2018,10,26,05,49,00,109.9,,,,,,,,,,,,,,
2018,10,26,05,50,00,119.8,,,,,,,,,,,,,,
2018,10,26,05,51,00,139.5,,,,,,,,,,,,,,
2018,10,26,05,52,00,156.0,,,,,,,,,,,,,,
2018,10,26,05,53,00,147.8,,,,,,,,,,,,,,
2018,10,26,05,54,00,149.0,,,,,,,,,,,,,,
2018,10,26,05,55,00,143.4,,,,,,,,,,,,,,
2018,10,26,05,56,00,157.8,,,,,,,,,,,,,,
2018,10,26,05,57,00,158.1,,,,,,,,,,,,,,
2018,10,26,05,58,00,167.6,,,,,,,,,,,,,,
2018,10,26,05,59,00,168.7,,,,,,,,,,,,,,
2018,10,26,06,00,00,169.8,,,,,,,,,,,,,,
2018,10,26,06,01,00,174.1,,,,,,,,,,,,,,
2018,10,26,06,02,00,150.3,,,,,,,,,,,,,,
2018,10,26,06,03,00,137.3,,,,,,,,,,,,,,
2018,10,26,06,04,00,90.7,,,,,,,,,,,,,,
2018,10,26,06,05,00,59.7,,,,,,,,,,,,,,
2018,10,26,06,06,00,71.5,,,,,,,,,,,,,,
2018,10,26,06,07,00,87.9,,,,,,,,,,,,,,
2018,10,26,06,08,00,100.0,,,,,,,,,,,,,,
2018,10,26,06,09,00,101.2,,,,,,,,,,,,,,
2018,10,26,06,10,00,104.6,,,,,,,,,,,,,,
2018,10,26,06,11,00,151.8,,,,,,,,,,,,,,
2018,10,26,06,12,00,164.5,,,,,,,,,,,,,,
2018,10,26,06,13,00,160.9,,,,,,,,,,,,,,
2018,10,26,06,14,00,161.3,,,,,,,,,,,,,,
2018,10,26,06,15,00,157.5,,,,,,,,,,,,,,
2018,10,26,06,16,00,155.4,,,,,,,,,,,,,,
2018,10,26,06,17,00,197.7,,,,,,,,,,,,,,
2018,10,26,06,18,00,225.7,,,,,,,,,,,,,,
2018,10,26,06,19,00,245.2,,,,,,,,,,,,,,
2018,10,26,06,20,00,218.9,,,,,,,,,,,,,,
2018,10,26,06,21,00,206.1,,,,,,,,,,,,,,
2018,10,26,06,22,00,193.0,,,,,,,,,,,,,,
2018,10,26,06,23,00,191.0,,,,,,,,,,,,,,
2018,10,26,06,24,00,181.8,,,,,,,,,,,,,,
2018,10,26,06,25,00,185.6,,,,,,,,,,,,,,
2018,10,26,06,26,00,169.6,,,,,,,,,,,,,,
2018,10,26,06,27,00,177.7,,,,,,,,,,,,,,
2018,10,26,06,28,00,198.2,,,,,,,,,,,,,,
2018,10,26,06,29,00,183.2,,,,,,,,,,,,,,
2018,10,26,06,30,00,165.1,,,,,,,,,,,,,,
2018,10,26,06,31,00,175.6,,,,,,,,,,,,,,
2018,10,26,06,32,00,165.3,,,,,,,,,,,,,,
2018,10,26,06,33,00,155.2,,,,,,,,,,,,,,
2018,10,26,06,34,00,150.7,,,,,,,,,,,,,,
2018,10,26,06,35,00,153.3,,,,,,,,,,,,,,
2018,10,26,06,36,00,155.6,,,,,,,,,,,,,,
2018,10,26,06,37,00,157.3,,,,,,,,,,,,,,
2018,10,26,06,38,00,159.0,,,,,,,,,,,,,,
2018,10,26,06,39,00,165.0,,,,,,,,,,,,,,
2018,10,26,06,40,00,174.8,,,,,,,,,,,,,,
2018,10,26,06,41,00,164.1,,,,,,,,,,,,,,
2018,10,26,06,42,00,168.2,,,,,,,,,,,,,,
2018,10,26,06,43,00,178.5,,,,,,,,,,,,,,
2018,10,26,06,44,00,165.4,,,,,,,,,,,,,,
2018,10,26,06,45,00,150.4,,,,,,,,,,,,,,
2018,10,26,06,46,00,155.7,,,,,,,,,,,,,,
2018,10,26,06,47,00,163.7,,,,,,,,,,,,,,
2018,10,26,06,48,00,165.4,,,,,,,,,,,,,,
2018,10,26,06,49,00,162.6,,,,,,,,,,,,,,
2018,10,26,06,50,00,158.0,,,,,,,,,,,,,,
2018,10,26,06,51,00,152.6,,,,,,,,,,,,,,
2018,10,26,06,52,00,151.3,,,,,,,,,,,,,,
2018,10,26,06,53,00,157.6,,,,,,,,,,,,,,
2018,10,26,06,54,00,158.9,,,,,,,,,,,,,,
2018,10,26,06,55,00,159.4,,,,,,,,,,,,,,
2018,10,26,06,56,00,149.1,,,,,,,,,,,,,,
2018,10,26,06,57,00,151.3,,,,,,,,,,,,,,
2018,10,26,06,58,00,185.3,,,,,,,,,,,,,,
2018,10,26,06,59,00,198.1,,,,,,,,,,,,,,
2018,10,26,07,00,00,191.4,,,,,,,,,,,,,,
2018,10,26,07,01,00,186.6,,,,,,,,,,,,,,
2018,10,26,07,02,00,164.9,,,,,,,,,,,,,,
2018,10,26,07,03,00,157.3,,,,,,,,,,,,,,
2018,10,26,07,04,00,153.1,,,,,,,,,,,,,,
2018,10,26,07,05,00,155.2,,,,,,,,,,,,,,
2018,10,26,07,06,00,154.8,,,,,,,,,,,,,,
2018,10,26,07,07,00,154.1,,,,,,,,,,,,,,
2018,10,26,07,08,00,156.6,,,,,,,,,,,,,,
2018,10,26,07,09,00,157.0,,,,,,,,,,,,,,
2018,10,26,07,10,00,163.3,,,,,,,,,,,,,,
2018,10,26,07,11,00,156.8,,,,,,,,,,,,,,
2018,10,26,07,12,00,157.4,,,,,,,,,,,,,,
2018,10,26,07,13,00,152.6,,,,,,,,,,,,,,
2018,10,26,07,14,00,158.2,,,,,,,,,,,,,,
2018,10,26,07,15,00,184.4,,,,,,,,,,,,,,
2018,10,26,07,16,00,204.3,,,,,,,,,,,,,,
2018,10,26,07,17,00,206.8,,,,,,,,,,,,,,
2018,10,26,07,18,00,215.2,,,,,,,,,,,,,,
2018,10,26,07,19,00,216.2,,,,,,,,,,,,,,
2018,10,26,07,20,00,194.6,,,,,,,,,,,,,,
2018,10,26,07,21,00,225.5,,,,,,,,,,,,,,
2018,10,26,07,22,00,204.1,,,,,,,,,,,,,,
2018,10,26,07,23,00,168.8,,,,,,,,,,,,,,
2018,10,26,07,24,00,157.9,,,,,,,,,,,,,,
2018,10,26,07,25,00,156.0,,,,,,,,,,,,,,
2018,10,26,07,26,00,146.1,,,,,,,,,,,,,,
2018,10,26,07,27,00,145.1,,,,,,,,,,,,,,
2018,10,26,07,28,00,152.3,,,,,,,,,,,,,,
2018,10,26,07,29,00,145.0,,,,,,,,,,,,,,
2018,10,26,07,30,00,151.8,,,,,,,,,,,,,,
2018,10,26,07,31,00,165.2,,,,,,,,,,,,,,
2018,10,26,07,32,00,178.4,,,,,,,,,,,,,,
2018,10,26,07,33,00,162.4,,,,,,,,,,,,,,
2018,10,26,07,34,00,164.5,,,,,,,,,,,,,,
2018,10,26,07,35,00,174.5,,,,,,,,,,,,,,
2018,10,26,07,36,00,208.2,,,,,,,,,,,,,,
2018,10,26,07,37,00,238.2,,,,,,,,,,,,,,
2018,10,26,07,38,00,306.1,,,,,,,,,,,,,,
2018,10,26,07,39,00,410.3,,,,,,,,,,,,,,
2018,10,26,07,40,00,360.4,,,,,,,,,,,,,,
2018,10,26,07,41,00,297.2,,,,,,,,,,,,,,
2018,10,26,07,42,00,293.8,,,,,,,,,,,,,,
2018,10,26,07,43,00,302.4,,,,,,,,,,,,,,
2018,10,26,07,44,00,341.6,,,,,,,,,,,,,,
2018,10,26,07,45,00,354.9,,,,,,,,,,,,,,
2018,10,26,07,46,00,397.3,,,,,,,,,,,,,,
2018,10,26,07,47,00,419.4,,,,,,,,,,,,,,
2018,10,26,07,48,00,402.8,,,,,,,,,,,,,,
2018,10,26,07,49,00,414.8,,,,,,,,,,,,,,
2018,10,26,07,50,00,398.5,,,,,,,,,,,,,,
2018,10,26,07,51,00,417.4,,,,,,,,,,,,,,
2018,10,26,07,52,00,328.7,,,,,,,,,,,,,,
2018,10,26,07,53,00,280.0,,,,,,,,,,,,,,
2018,10,26,07,54,00,248.7,,,,,,,,,,,,,,
2018,10,26,07,55,00,236.0,,,,,,,,,,,,,,
2018,10,26,07,56,00,246.1,,,,,,,,,,,,,,
2018,10,26,07,57,00,233.4,,,,,,,,,,,,,,
2018,10,26,07,58,00,255.3,,,,,,,,,,,,,,
2018,10,26,07,59,00,246.6,,,,,,,,,,,,,,
2018,10,26,08,00,00,243.4,,,,,,,,,,,,,,
2018,10,26,08,01,00,220.3,,,,,,,,,,,,,,
2018,10,26,08,02,00,202.0,,,,,,,,,,,,,,
2018,10,26,08,03,00,199.8,,,,,,,,,,,,,,
2018,10,26,08,04,00,199.2,,,,,,,,,,,,,,
2018,10,26,08,05,00,200.7,,,,,,,,,,,,,,
2018,10,26,08,06,00,208.1,,,,,,,,,,,,,,
2018,10,26,08,07,00,264.3,,,,,,,,,,,,,,
2018,10,26,08,08,00,292.6,,,,,,,,,,,,,,
2018,10,26,08,09,00,287.3,,,,,,,,,,,,,,
2018,10,26,08,10,00,264.5,,,,,,,,,,,,,,
2018,10,26,08,11,00,271.4,,,,,,,,,,,,,,
2018,10,26,08,12,00,251.5,,,,,,,,,,,,,,
2018,10,26,08,13,00,260.1,,,,,,,,,,,,,,
2018,10,26,08,14,00,291.6,,,,,,,,,,,,,,
2018,10,26,08,15,00,268.3,,,,,,,,,,,,,,
2018,10,26,08,16,00,276.0,,,,,,,,,,,,,,
2018,10,26,08,17,00,347.8,,,,,,,,,,,,,,
2018,10,26,08,18,00,376.0,,,,,,,,,,,,,,
2018,10,26,08,19,00,359.5,,,,,,,,,,,,,,
2018,10,26,08,20,00,384.5,,,,,,,,,,,,,,
2018,10,26,08,21,00,403.4,,,,,,,,,,,,,,
2018,10,26,08,22,00,370.0,,,,,,,,,,,,,,
2018,10,26,08,23,00,364.9,,,,,,,,,,,,,,
2018,10,26,08,24,00,385.0,,,,,,,,,,,,,,
2018,10,26,08,25,00,415.4,,,,,,,,,,,,,,
2018,10,26,08,26,00,381.1,,,,,,,,,,,,,,
2018,10,26,08,27,00,292.6,,,,,,,,,,,,,,
2018,10,26,08,28,00,230.3,,,,,,,,,,,,,,
2018,10,26,08,29,00,209.0,,,,,,,,,,,,,,
2018,10,26,08,30,00,219.6,,,,,,,,,,,,,,
2018,10,26,08,31,00,269.7,,,,,,,,,,,,,,
2018,10,26,08,32,00,284.8,,,,,,,,,,,,,,
2018,10,26,08,33,00,330.9,,,,,,,,,,,,,,
2018,10,26,08,34,00,392.4,,,,,,,,,,,,,,
2018,10,26,08,35,00,413.9,,,,,,,,,,,,,,
2018,10,26,08,36,00,417.5,,,,,,,,,,,,,,
2018,10,26,08,37,00,429.0,,,,,,,,,,,,,,
2018,10,26,08,38,00,432.1,,,,,,,,,,,,,,
2018,10,26,08,39,00,419.8,,,,,,,,,,,,,,
2018,10,26,08,40,00,400.4,,,,,,,,,,,,,,
2018,10,26,08,41,00,384.4,,,,,,,,,,,,,,
2018,10,26,08,42,00,328.3,,,,,,,,,,,,,,
2018,10,26,08,43,00,292.6,,,,,,,,,,,,,,
2018,10,26,08,44,00,295.1,,,,,,,,,,,,,,
2018,10,26,08,45,00,295.9,,,,,,,,,,,,,,
2018,10,26,08,46,00,306.8,,,,,,,,,,,,,,
2018,10,26,08,47,00,294.4,,,,,,,,,,,,,,
2018,10,26,08,48,00,288.2,,,,,,,,,,,,,,
2018,10,26,08,49,00,257.0,,,,,,,,,,,,,,
2018,10,26,08,50,00,254.6,,,,,,,,,,,,,,
2018,10,26,08,51,00,275.0,,,,,,,,,,,,,,
2018,10,26,08,52,00,299.9,,,,,,,,,,,,,,
2018,10,26,08,53,00,383.6,,,,,,,,,,,,,,
2018,10,26,08,54,00,407.8,,,,,,,,,,,,,,
2018,10,26,08,55,00,409.1,,,,,,,,,,,,,,
2018,10,26,08,56,00,408.4,,,,,,,,,,,,,,
2018,10,26,08,57,00,412.4,,,,,,,,,,,,,,
2018,10,26,08,58,00,360.7,,,,,,,,,,,,,,
2018,10,26,08,59,00,357.0,,,,,,,,,,,,,,
2018,10,26,09,00,00,358.1,,,,,,,,,,,,,,
2018,10,26,09,01,00,262.2,,,,,,,,,,,,,,
2018,10,26,09,02,00,236.5,,,,,,,,,,,,,,
2018,10,26,09,03,00,232.7,,,,,,,,,,,,,,
2018,10,26,09,04,00,248.3,,,,,,,,,,,,,,
2018,10,26,09,05,00,264.7,,,,,,,,,,,,,,
2018,10,26,09,06,00,300.4,,,,,,,,,,,,,,
2018,10,26,09,07,00,332.0,,,,,,,,,,,,,,
2018,10,26,09,08,00,354.1,,,,,,,,,,,,,,
2018,10,26,09,09,00,381.9,,,,,,,,,,,,,,
2018,10,26,09,10,00,380.3,,,,,,,,,,,,,,
2018,10,26,09,11,00,367.0,,,,,,,,,,,,,,
2018,10,26,09,12,00,380.9,,,,,,,,,,,,,,
2018,10,26,09,13,00,379.8,,,,,,,,,,,,,,
2018,10,26,09,14,00,345.7,,,,,,,,,,,,,,
2018,10,26,09,15,00,340.4,,,,,,,,,,,,,,
2018,10,26,09,16,00,311.5,,,,,,,,,,,,,,
2018,10,26,09,17,00,301.4,,,,,,,,,,,,,,
2018,10,26,09,18,00,294.8,,,,,,,,,,,,,,
2018,10,26,09,19,00,289.7,,,,,,,,,,,,,,
2018,10,26,09,20,00,239.6,,,,,,,,,,,,,,
2018,10,26,09,21,00,206.5,,,,,,,,,,,,,,
2018,10,26,09,22,00,190.0,,,,,,,,,,,,,,
2018,10,26,09,23,00,159.2,,,,,,,,,,,,,,
2018,10,26,09,24,00,167.9,,,,,,,,,,,,,,
2018,10,26,09,25,00,174.5,,,,,,,,,,,,,,
2018,10,26,09,26,00,192.2,,,,,,,,,,,,,,
2018,10,26,09,27,00,192.6,,,,,,,,,,,,,,
2018,10,26,09,28,00,196.8,,,,,,,,,,,,,,
2018,10,26,09,29,00,224.3,,,,,,,,,,,,,,
2018,10,26,09,30,00,252.6,,,,,,,,,,,,,,
2018,10,26,09,31,00,264.3,,,,,,,,,,,,,,
2018,10,26,09,32,00,254.2,,,,,,,,,,,,,,
2018,10,26,09,33,00,254.8,,,,,,,,,,,,,,
2018,10,26,09,34,00,236.4,,,,,,,,,,,,,,
2018,10,26,09,35,00,204.9,,,,,,,,,,,,,,
2018,10,26,09,36,00,199.8,,,,,,,,,,,,,,
2018,10,26,09,37,00,172.4,,,,,,,,,,,,,,
2018,10,26,09,38,00,162.3,,,,,,,,,,,,,,
2018,10,26,09,39,00,168.2,,,,,,,,,,,,,,
2018,10,26,09,40,00,151.3,,,,,,,,,,,,,,
2018,10,26,09,41,00,145.8,,,,,,,,,,,,,,
2018,10,26,09,42,00,125.0,,,,,,,,,,,,,,
2018,10,26,09,43,00,151.4,,,,,,,,,,,,,,
2018,10,26,09,44,00,150.1,,,,,,,,,,,,,,
2018,10,26,09,45,00,187.6,,,,,,,,,,,,,,